Regional Weather Roundup
Issued by NWS Cleveland, OH

Home | Current Version | Previous Version | Graphics & Text | Print | Product List | Glossary On
Versions: 1 2 3 4 5 6 7 8 9 10 11 12 13 14 15 16 17 18 19 20 21 22 23 24 25 26 27 28 29 30 31 32 33 34 35 36 37 38 39 40 41 42 43 44 45 46 47 48 49 50
000
ASUS41 KCLE 301510
RWRCLE
OHIO REGIONAL WEATHER ROUNDUP
NATIONAL WEATHER SERVICE WILMINGTON, OH
1100 AM EDT SAT MAY 30 2015

NOTE: "FAIR" INDICATES FEW OR NO CLOUDS BELOW 12,000 FEET WITH NO
SIGNIFICANT WEATHER AND/OR OBSTRUCTIONS TO VISIBILITY.

OHZ001>008-015>018-024>027-034-035-043-044-301600-
   NORTHWEST OHIO

CITY           SKY/WX    TMP DP  RH WIND       PRES   REMARKS
DEFIANCE       PTSUNNY   78  66  66 SW7       30.02F
FINDLAY        PTSUNNY   79  68  69 W12       30.03F
TOLEDO EXPRESS CLOUDY    78  65  63 W14       30.01F
TOLEDO EXEC    MOSUNNY   79  67  66 SW13      30.02F
LIMA           PTSUNNY   77  67  71 SW10      30.04F
$$

OHZ009>014-019>023-028>033-038-089-301600-
   NORTHEAST OHIO

CITY           SKY/WX    TMP DP  RH WIND       PRES   REMARKS
CLE-HOPKINS    PTSUNNY   76  67  73 SW10      30.06F
CLE-LAKEFRONT  CLOUDY    78  67  68 SW9       30.03F
CUY CO. ARPT   PTSUNNY   81  68  65 SW9       30.06S
LORAIN-ELYRIA  MOSUNNY   78  67  68 SW10      30.05F
ASHTABULA      CLOUDY    76  67  73 SW12      30.07S
AKRON-CANTON   CLOUDY    78  66  66 SW13      30.08F
WOOSTER        MOSUNNY   76  67  73 SW12      30.08F
MANSFIELD      PTSUNNY   75  67  76 SW10      30.08S
YOUNGSTOWN     PTSUNNY   75  65  70 S10       30.09S
$$

OHZ042-051>053-060>062-070>072-077>081-301600-
  SOUTHWEST OHIO

CITY           SKY/WX    TMP DP  RH WIND       PRES   REMARKS
CINC-COVINGTON MOSUNNY   79  68  69 S12       30.08F
CINC-LUNKEN    MOSUNNY   78  69  73 S7        30.07F
HAMILTON       MOSUNNY   80  69  69 VRB6      30.07F
DAYTON         PTSUNNY   79  68  69 SW10      30.07F
WRIGHT-PAT AFB MOSUNNY   80  69  69 SW15      30.06F
DAYTON GENERAL PTSUNNY   76  67  73 S8        30.07F
WILMINGTON     MOSUNNY   78  66  66 S12       30.09F
$$

OHZ036-037-039>041-045>050-054>059-063>069-073>076-082>088-301600-
  CENTRAL AND SOUTHEAST OHIO

CITY           SKY/WX    TMP DP  RH WIND       PRES   REMARKS
COLUMBUS       PTSUNNY   74  67  78 SW8       30.08F
OSU AIRPORT    PTSUNNY   78  67  68 SW8       30.08F
BOLTON FIELD   PTSUNNY   77  70  78 S10G16    30.09F
RICKENBACK AFB MOSUNNY   74  68  80 SW10      30.08F
NEWARK         LGT RAIN  71  68  90 SW8       30.09S
MARION         MOSUNNY   79  67  66 SW14      30.06F
LANCASTER      CLOUDY    77  66  68 SW8       30.10F
ZANESVILLE     PTSUNNY   79  66  64 SW10      30.10F
NEW PHILLY     PTSUNNY   80  67  64 VRB6      30.09F
$$


USA.gov is the U.S. government's official web portal to all federal, state and local government web resources and services.